Weather History for Deer Park, WA

Change the Weather History Date:

Wednesday, January 9, 2013

  Actual Average Record
Temperature  
Mean Temperature 38 °F 26 °F  
Max Temperature 42 °F 32 °F 46 °F (2007)
Min Temperature 33 °F 20 °F 7 °F (2011)
Degree Days  
Heating Degree Days 27 39  
Month to date heating degree days 366 354  
Since 1 July heating degree days 3159 3581  
Cooling Degree Days 0 0  
Month to date cooling degree days 0 0  
Year to date cooling degree days 0 0  
Moisture  
Dew Point 32 °F    
Average Humidity 80    
Maximum Humidity 89    
Minimum Humidity 70    
Precipitation  
Precipitation 0.00 in 0.10 in 1.33 in (2006)
Month to date precipitation 0.99 0.93  
Year to date precipitation 0.99 0.93  
Sea Level Pressure  
Sea Level Pressure 29.75 in    
Wind  
Wind Speed 10 mph (South)    
Max Wind Speed 22 mph    
Max Gust Speed 31 mph    
Visibility 10 miles    
Events      
T = Trace of Precipitation, MM = Missing Value Source: NWS Daily Summary

Daily Weather History Graph

Daily Weather History Graph

Search for Another Location

Airport:

Trip Planner

Search our weather history database for the weather conditions in past years. The results will help you decide how hot, cold, wet, or windy it might be!

Date:

Astronomy

Jan. 09, 2013 Rise Set
Actual Time 7:37 AM PST 4:16 PM PST
Civil Twilight 7:02 AM PST 4:52 PM PST
Nautical Twilight 6:23 AM PST 5:31 PM PST
Astronomical Twilight 5:45 AM PST 6:08 PM PST
Moon 5:22 AM PST (1/9) 2:22 PM PST (1/9)
Length of Visible Light 9h 50m
Length of Day
8h 39m
Waning Crescent, 6% of the Moon is Illuminated
Jan 9
Waning Crescent
Jan 11
New
Jan 18
First Quarter
Jan 26
Full
Feb 3
Last Quarter

Hourly Weather History & Observations

Time (PST) Temp. Windchill Dew Point Humidity Pressure Visibility Wind Dir Wind Speed Gust Speed Precip Events Conditions
12:41 AM 39.2 °F 35.0 °F 37.4 °F 93% 29.82 in 10.0 mi ESE 5.8 mph - N/A   Overcast
12:53 AM 39.0 °F 33.4 °F 36.0 °F 89% 29.87 in 10.0 mi SE 8.1 mph - N/A   Mostly Cloudy
1:53 AM 39.0 °F 33.4 °F 35.1 °F 86% 29.86 in 10.0 mi SE 8.1 mph - N/A   Clear
2:53 AM 39.0 °F 34.0 °F 35.1 °F 86% 29.85 in 10.0 mi ESE 6.9 mph - N/A   Partly Cloudy
3:53 AM 37.0 °F 34.5 °F 33.1 °F 86% 29.85 in 10.0 mi NNE 3.5 mph - N/A   Partly Cloudy
4:53 AM 39.0 °F 31.0 °F 32.0 °F 76% 29.81 in 10.0 mi South 13.8 mph - N/A   Mostly Cloudy
5:53 AM 39.0 °F 31.8 °F 32.0 °F 76% 29.80 in 10.0 mi South 11.5 mph - N/A   Clear
6:53 AM 39.9 °F - 32.0 °F 73% 29.77 in 10.0 mi Calm Calm - N/A   Partly Cloudy
7:53 AM 39.9 °F 34.5 °F 30.9 °F 70% 29.75 in 10.0 mi South 8.1 mph - N/A   Clear
9:53 AM 41.0 °F 36.4 °F 34.0 °F 76% 29.69 in 10.0 mi SSE 6.9 mph - N/A   Mostly Cloudy
10:53 AM 41.0 °F 33.5 °F 34.0 °F 76% 29.67 in 10.0 mi South 13.8 mph - N/A   Overcast
11:53 AM 39.9 °F 32.1 °F 34.0 °F 79% 29.64 in 10.0 mi South 13.8 mph - N/A   Overcast
12:53 PM 39.9 °F 34.5 °F 34.0 °F 79% 29.63 in 10.0 mi SSW 8.1 mph - N/A   Overcast
2:53 PM 41.0 °F 32.5 °F 32.0 °F 70% 29.65 in 10.0 mi SW 17.3 mph 26.5 mph N/A   Overcast
3:53 PM 37.9 °F 30.0 °F 33.1 °F 83% 29.67 in 10.0 mi SSW 12.7 mph - N/A   Overcast
4:37 PM 37.4 °F 29.8 °F 32.0 °F 81% 29.64 in 10.0 mi SSW 11.5 mph - N/A   Overcast
4:53 PM 37.9 °F 28.9 °F 32.0 °F 79% 29.68 in 10.0 mi SSW 16.1 mph 25.3 mph N/A   Overcast
5:53 PM 37.0 °F 31.0 °F 30.9 °F 79% 29.70 in 10.0 mi South 8.1 mph - N/A   Scattered Clouds
6:53 PM 36.0 °F 28.0 °F 30.0 °F 79% 29.72 in 10.0 mi South 11.5 mph - N/A   Clear
7:53 PM 35.1 °F 27.4 °F 30.0 °F 82% 29.73 in 10.0 mi South 10.4 mph - N/A   Mostly Cloudy
8:53 PM 35.1 °F 28.6 °F 30.0 °F 82% 29.75 in 10.0 mi South 8.1 mph - N/A   Overcast
9:53 PM 34.0 °F 27.2 °F 30.0 °F 85% 29.76 in 10.0 mi SSE 8.1 mph - N/A   Overcast
10:53 PM 33.1 °F 25.5 °F 30.0 °F 89% 29.78 in 10.0 mi South 9.2 mph - N/A   Overcast
11:53 PM 33.1 °F 24.9 °F 28.9 °F 85% 29.79 in 10.0 mi SSE 10.4 mph - N/A   Overcast